Погода в Самарском

Россия / Ростовская область     46°56′15″N   39°41′15″E
темп.,
°C
ветер,
м/с
пор.,
м/с
влажн.,
%
обл.,
%
осадки,
мм/ч
давл.,
гПа
погр.,
м
24 июля, сб
сб2400:00+20с34500 0.0 101057
03:00+19ссв39550 0.0 1011167
06:00+18ссв34580 0.0 101286
09:00+24с34410 0.0 1012563
12:00+28с32320 0.0 10121899
15:00+29ссв22280 0.0 10122389
18:00+29св33310 0.0 10122122
21:00+24ссв33390 0.0 101427
25 июля, вс
вс2500:00+22св33450 0.0 101427
03:00+20св35500 0.0 101572
06:00+19св49590 0.0 1016186
09:00+26всв56430 0.0 1017547
12:00+30всв55300 0.0 10172383
15:00+32всв55265 0.0 10162946
18:00+31всв563044 0.0 10161786
21:00+25св484111 0.0 1017128
26 июля, пн
пн2600:00+24св5124316 0.0 1018358
03:00+24св6144190 0.0 1018453
06:00+22св51246100 0.2 1018328
09:00+22св496296 1.1 1018219
12:00+30всв673340 0.0 10181010
15:00+30ссв673555 0.0 1017773
18:00+30св593585 0.0 1016500
21:00+26св7144234 0.0 1017379
27 июля, вт
вт2700:00+24ссв494783 0.1 1017255
03:00+24ссв61048100 0.1 1017282
06:00+22св410565 0.0 1018207
09:00+28в5635100 0.0 1018548
12:00+30в462714 0.0 1018933
15:00+33в552111 0.0 10173016
18:00+31в452519 0.0 10172013
21:00+25ююв35345 0.0 101979
28 июля, ср
ср2800:00+22ю223951 0.0 101917
03:00+21юз224573 0.0 101922
06:00+21юз234832 0.0 101992
09:00+26зюз333859 0.0 1019586
12:00+31ссз12293 0.0 10181688
15:00+32зсз232618 0.0 10163163
18:00+29сз3434100 0.0 1015177
21:00+25сз22450 0.0 101618